Gambell, AK

5:37 AM AKDT on August 25, 2016 (GMT -0800)
Gambell

Weather History for PAGM - May, 2014

Change the Weather History Date:

Friday, May 16, 2014

  Actual Average Record
Temperature  
Mean Temperature 34 °F -  
Max Temperature 35 °F 32 °F 37 °F (2016)
Min Temperature 33 °F 26 °F 10 °F (2013)
Degree Days  
Heating Degree Days 31    
Moisture  
Dew Point 30 °F    
Average Humidity 83    
Maximum Humidity 100    
Minimum Humidity 81    
Precipitation  
Precipitation 0.00 in - - ()
Sea Level Pressure  
Sea Level Pressure 30.29 in    
Wind  
Wind Speed 15 mph (SSW)    
Max Wind Speed 20 mph    
Max Gust Speed -    
Visibility 1 miles    
Events      
Averages and records for this station are not official NWS values.
T = Trace of Precipitation, MM = Missing Value Source: NWS Daily Summary

Daily Weather History Graph

Daily Weather History Graph

Search for Another Location

Airport or City:

Trip Planner

Search our weather history database for the weather conditions in past years. The results will help you decide how hot, cold, wet, or windy it might be!

Date:

Astronomy

May. 16, 2014 Rise Set
Actual Time 6:12 AM AKDT 12:36 AM AKDT
Civil Twilight 4:32 AM AKDT 2:21 AM AKDT
Nautical Twilight Sun does not set Sun does not set
Astronomical Twilight Sun does not set Sun does not set
Moon 1:52 AM AKDT (5/16) 8:09 AM AKDT (5/16)
Length of Visible Light 21h 49m
Length of Day
18h 24m
Waning Gibbous, 95% of the Moon is Illuminated
May 16
Waning Gibbous
May 21
Last Quarter
May 28
New
Jun 5
First Quarter
Jun 12
Full

Hourly Weather History & Observations

Time (AKDT) Temp. Windchill Dew Point Humidity Pressure Visibility Wind Dir Wind Speed Gust Speed Precip Events Conditions
12:16 AM 35.6 °F 25.9 °F 30.2 °F 81% 30.33 in 1.0 mi South 16.1 mph - N/A   Overcast
12:36 AM 35.6 °F 26.6 °F 30.2 °F 81% 30.33 in 0.8 mi South 13.8 mph - N/A   Overcast
12:56 AM 35.6 °F 25.9 °F 30.2 °F 81% 30.34 in 0.8 mi South 16.1 mph - N/A   Overcast
1:16 AM 35.6 °F 25.9 °F 30.2 °F 81% 30.34 in 0.5 mi South 16.1 mph - N/A   Overcast
1:36 AM 35.6 °F - 30.2 °F 81% 30.34 in 1.2 mi North - - N/A   Overcast
1:56 AM 35.6 °F 26.2 °F 30.2 °F 81% 30.33 in 1.2 mi South 15.0 mph - N/A   Overcast
2:16 AM 35.6 °F 26.2 °F 30.2 °F 81% 30.33 in 1.2 mi South 15.0 mph - N/A   Overcast
2:36 AM 35.6 °F 25.9 °F 30.2 °F 81% 30.33 in 1.5 mi South 16.1 mph - N/A   Overcast
2:56 AM 35.6 °F 26.6 °F 30.2 °F 81% 30.33 in 2.5 mi South 13.8 mph - N/A   Overcast
3:16 AM 35.6 °F 25.9 °F 30.2 °F 81% 30.32 in 2.0 mi South 16.1 mph - N/A   Overcast
3:36 AM 35.6 °F 26.2 °F 30.2 °F 81% 30.33 in 1.2 mi South 15.0 mph - N/A   Overcast
3:56 AM 35.6 °F 26.6 °F 30.2 °F 81% 30.33 in 1.0 mi South 13.8 mph - N/A   Overcast
4:16 AM 35.6 °F 26.2 °F 30.2 °F 81% 30.32 in 0.8 mi South 15.0 mph - N/A   Overcast
4:36 AM 35.6 °F 26.2 °F 30.2 °F 81% 30.32 in 1.5 mi South 15.0 mph - N/A   Overcast
4:56 AM 35.6 °F 27.1 °F 30.2 °F 81% 30.32 in 1.0 mi South 12.7 mph - N/A   Overcast
5:16 AM 35.6 °F 27.1 °F 30.2 °F 81% 30.32 in 1.5 mi South 12.7 mph - N/A   Overcast
5:36 AM 35.6 °F 26.6 °F 30.2 °F 81% 30.32 in 1.5 mi SSW 13.8 mph - N/A   Overcast
5:56 AM 35.6 °F 26.6 °F 30.2 °F 81% 30.32 in 1.0 mi SSW 13.8 mph - N/A   Overcast
6:16 AM 35.6 °F 26.6 °F 30.2 °F 81% 30.32 in 0.8 mi South 13.8 mph - N/A   Overcast
6:36 AM 35.6 °F 26.2 °F 30.2 °F 81% 30.32 in 0.5 mi SSW 15.0 mph - N/A   Overcast
6:56 AM 35.6 °F 26.2 °F 30.2 °F 81% 30.32 in 0.8 mi SSW 15.0 mph - N/A   Overcast
7:16 AM 35.6 °F 26.6 °F 30.2 °F 81% 30.31 in 0.5 mi SSW 13.8 mph - N/A   Overcast
7:36 AM 35.6 °F 26.2 °F 30.2 °F 81% 30.31 in 0.5 mi SSW 15.0 mph - N/A   Overcast
7:56 AM 35.6 °F 26.2 °F 30.2 °F 81% 30.31 in 0.5 mi SSW 15.0 mph - N/A   Overcast
8:16 AM 35.6 °F 26.2 °F 30.2 °F 81% 30.31 in 0.5 mi SSW 15.0 mph - N/A   Overcast
8:36 AM 35.6 °F 26.2 °F 33.8 °F 93% 30.31 in 0.5 mi SSW 15.0 mph - N/A   Overcast
8:56 AM 33.8 °F 23.9 °F 33.8 °F 100% 30.31 in 0.5 mi SSW 15.0 mph - N/A   Overcast
9:16 AM 35.6 °F 26.6 °F 33.8 °F 93% 30.31 in 0.2 mi SSW 13.8 mph - N/A   Overcast
9:36 AM 35.6 °F 26.6 °F 32.0 °F 87% 30.31 in 0.2 mi South 13.8 mph - N/A   Overcast
9:56 AM 35.6 °F 26.6 °F 32.0 °F 87% 30.31 in 0.2 mi SSW 13.8 mph - N/A   Overcast
10:16 AM 35.6 °F 27.1 °F 32.0 °F 87% 30.31 in 0.2 mi SSW 12.7 mph - N/A   Overcast
10:36 AM 35.6 °F 27.1 °F 30.2 °F 81% 30.31 in 0.2 mi SSW 12.7 mph - N/A   Overcast
10:56 AM 35.6 °F 27.1 °F 30.2 °F 81% 30.31 in 1.0 mi SSW 12.7 mph - N/A   Overcast
11:16 AM 35.6 °F 26.6 °F 32.0 °F 87% 30.31 in 1.0 mi South 13.8 mph - N/A   Overcast
11:36 AM 35.6 °F 26.6 °F 32.0 °F 87% 30.31 in 0.8 mi SSW 13.8 mph - N/A   Overcast
11:56 AM 35.6 °F 26.2 °F 32.0 °F 87% 30.31 in 1.0 mi SSW 15.0 mph - N/A   Overcast
12:16 PM 35.6 °F 26.2 °F 30.2 °F 81% 30.31 in 4.0 mi SSW 15.0 mph - N/A   Overcast
12:36 PM 35.6 °F 26.6 °F 30.2 °F 81% 30.30 in 2.0 mi SSW 13.8 mph - N/A   Overcast
12:56 PM 35.6 °F 26.6 °F 30.2 °F 81% 30.30 in 0.8 mi SSW 13.8 mph - N/A   Overcast
1:16 PM 35.6 °F 26.2 °F 30.2 °F 81% 30.30 in 3.0 mi SSW 15.0 mph - N/A   Overcast
1:36 PM 35.6 °F 26.6 °F 30.2 °F 81% 30.30 in 0.5 mi SSW 13.8 mph - N/A   Overcast
1:56 PM 35.6 °F 27.1 °F 30.2 °F 81% 30.29 in 1.0 mi SSW 12.7 mph - N/A   Overcast
2:16 PM 35.6 °F 26.2 °F 30.2 °F 81% 30.29 in 1.0 mi SSW 15.0 mph - N/A   Overcast
2:36 PM 35.6 °F 25.9 °F 30.2 °F 81% 30.29 in 1.0 mi SSW 16.1 mph - N/A   Overcast
2:56 PM 35.6 °F 26.6 °F 30.2 °F 81% 30.29 in 0.5 mi SSW 13.8 mph - N/A   Overcast
3:16 PM 35.6 °F 26.2 °F 30.2 °F 81% 30.29 in 0.8 mi SSW 15.0 mph - N/A   Overcast
3:36 PM 35.6 °F 26.2 °F 30.2 °F 81% 30.28 in 0.8 mi SSW 15.0 mph - N/A   Overcast
3:56 PM 35.6 °F 26.2 °F 30.2 °F 81% 30.28 in 0.8 mi SSW 15.0 mph - N/A   Overcast
4:16 PM 35.6 °F 25.9 °F 30.2 °F 81% 30.28 in 1.0 mi SSW 16.1 mph - N/A   Overcast
4:36 PM 35.6 °F 25.5 °F 30.2 °F 81% 30.28 in 1.0 mi SSW 17.3 mph - N/A   Overcast
4:56 PM 35.6 °F 25.9 °F 30.2 °F 81% 30.27 in 0.8 mi SSW 16.1 mph - N/A   Overcast
5:16 PM 35.6 °F 25.9 °F 30.2 °F 81% 30.27 in 0.8 mi SSW 16.1 mph - N/A   Overcast
5:36 PM 35.6 °F 25.9 °F 30.2 °F 81% 30.27 in 1.0 mi SSW 16.1 mph - N/A   Overcast
5:56 PM 35.6 °F 25.5 °F 30.2 °F 81% 30.26 in 0.8 mi SSW 17.3 mph - N/A   Overcast
6:16 PM 35.6 °F 25.2 °F 30.2 °F 81% 30.26 in 0.2 mi SSW 18.4 mph - N/A   Overcast
6:36 PM 35.6 °F 24.8 °F 30.2 °F 81% 30.25 in 0.2 mi SSW 19.6 mph - N/A   Overcast
6:56 PM 35.6 °F 25.2 °F 30.2 °F 81% 30.26 in 0.5 mi SSW 18.4 mph - N/A   Overcast
7:16 PM 35.6 °F 25.2 °F 30.2 °F 81% 30.25 in 0.5 mi SSW 18.4 mph - N/A   Overcast
7:36 PM 35.6 °F 25.2 °F 30.2 °F 81% 30.25 in 0.8 mi SSW 18.4 mph - N/A   Overcast
7:56 PM 35.6 °F 25.5 °F 30.2 °F 81% 30.25 in 0.2 mi SSW 17.3 mph - N/A   Overcast
8:16 PM 35.6 °F 25.5 °F 30.2 °F 81% 30.24 in 0.2 mi SSW 17.3 mph - N/A   Overcast
8:36 PM 35.6 °F 25.9 °F 30.2 °F 81% 30.24 in 0.5 mi SSW 16.1 mph - N/A   Overcast
8:56 PM 33.8 °F 23.9 °F 30.2 °F 87% 30.24 in 0.5 mi SSW 15.0 mph - N/A   Overcast
9:16 PM 33.8 °F 24.3 °F 30.2 °F 87% 30.24 in 0.2 mi SSW 13.8 mph - N/A   Overcast
9:36 PM 33.8 °F 24.3 °F 30.2 °F 87% 30.24 in 0.2 mi SSW 13.8 mph - N/A   Overcast
9:56 PM 33.8 °F 24.3 °F 30.2 °F 87% 30.24 in 0.2 mi SW 13.8 mph - N/A   Overcast
10:16 PM 33.8 °F 24.3 °F 30.2 °F 87% 30.25 in 0.2 mi SW 13.8 mph - N/A   Overcast
10:36 PM 33.8 °F 24.3 °F 30.2 °F 87% 30.25 in 0.5 mi SW 13.8 mph - N/A   Overcast
10:56 PM 33.8 °F 24.8 °F 30.2 °F 87% 30.25 in 0.8 mi WSW 12.7 mph - N/A   Overcast
11:16 PM 33.8 °F 24.3 °F 30.2 °F 87% 30.25 in 0.2 mi WSW 13.8 mph - N/A   Overcast
11:36 PM 33.8 °F 23.9 °F 30.2 °F 87% 30.25 in 0.2 mi WSW 15.0 mph - N/A   Overcast
11:56 PM 33.8 °F 23.9 °F 30.2 °F 87% 30.25 in 0.2 mi WSW 15.0 mph - N/A   Overcast